Location: Bessat
(45.8735°N, 1.9924°E)
Time: 19:12:35
(UTC+00:00)

Cosmos 44 - Pass Details

Date: 11 May 2021
Orbit: 571 x 791 km, 65.1° (Epoch: 20 June)

Event Time Altitude Azimuth Distance (km) Brightness Sun altitude
Rises 21:42:01 0° 326° (NNW) 3,296 8.4 -19.9°
Reaches altitude 10° 21:44:34 10° 332° (NNW) 2,360 7.2 -20.1°
Maximum altitude 21:49:50 47° 47° (NE) 1,018 4.2 -20.6°
Enters shadow 21:51:59 31° 101° (E) 1,330 4.4 -20.8°
